Change the Weather History Date:

Monday, January 13, 2014

  Actual Average Record
Temperature  
Mean Temperature 26 °F -  
Max Temperature 33 °F - - ()
Min Temperature 19 °F - - ()
Degree Days  
Heating Degree Days 39    
Moisture  
Dew Point 20 °F    
Average Humidity 75    
Maximum Humidity 92    
Minimum Humidity 62    
Precipitation  
Precipitation 0.00 in - - ()
Sea Level Pressure  
Sea Level Pressure 29.57 in    
Wind  
Wind Speed 8 mph (West)    
Max Wind Speed 15 mph    
Max Gust Speed 21 mph    
Visibility 10 miles    
Events      
T = Trace of Precipitation, MM = Missing Value Source: NWS Daily Summary

Daily Weather History Graph

Daily Weather History Graph

Search for Another Location

Airport or City:

Trip Planner

Search our weather history database for the weather conditions in past years. The results will help you decide how hot, cold, wet, or windy it might be!

Date:

Astronomy

Jan. 13, 2014 Rise Set
Actual Time 7:47 AM CST 4:48 PM CST
Civil Twilight 7:14 AM CST 5:22 PM CST
Nautical Twilight 6:37 AM CST 5:59 PM CST
Astronomical Twilight 6:01 AM CST 6:35 PM CST
Moon 3:05 PM CST (1/13) 5:36 AM CST (1/13)
Length of Visible Light 10h 08m
Length of Day
9h 01m
Waxing Gibbous, 95% of the Moon is Illuminated
Jan 13
Waxing Gibbous
Jan 15
Full
Jan 23
Last Quarter
Jan 30
New
Feb 6
First Quarter

Hourly Weather History & Observations

Time (CST) Temp. Windchill Dew Point Humidity Pressure Visibility Wind Dir Wind Speed Gust Speed Precip Events Conditions
12:15 AM 33.1 °F 25.5 °F 28.2 °F 82% 29.46 in 10.0 mi West 9.2 mph - N/A   Clear
12:35 AM 32.2 °F 25.8 °F 27.9 °F 84% 29.46 in 10.0 mi West 6.9 mph - N/A   Clear
12:55 AM 32.0 °F 26.4 °F 27.5 °F 83% 29.45 in 10.0 mi West 5.8 mph - N/A   Clear
1:15 AM 32.0 °F 25.6 °F 27.9 °F 85% 29.45 in 10.0 mi West 6.9 mph - N/A   Clear
1:35 AM 31.8 °F 24.6 °F 27.5 °F 84% 29.45 in 10.0 mi West 8.1 mph - N/A   Clear
1:55 AM 31.5 °F 24.9 °F 27.3 °F 85% 29.46 in 10.0 mi West 6.9 mph - N/A   Clear
2:15 AM 31.1 °F 23.7 °F 27.1 °F 85% 29.47 in 10.0 mi West 8.1 mph - N/A   Clear
2:35 AM 30.9 °F 25.2 °F 27.1 °F 86% 29.47 in 10.0 mi West 5.8 mph - N/A   Clear
2:55 AM 29.7 °F 22.8 °F 26.6 °F 88% 29.48 in 10.0 mi West 6.9 mph - N/A   Clear
3:15 AM 29.3 °F 23.2 °F 26.4 °F 89% 29.48 in 10.0 mi West 5.8 mph - N/A   Clear
3:35 AM 28.9 °F 21.9 °F 26.6 °F 91% 29.48 in 10.0 mi West 6.9 mph - N/A   Clear
3:55 AM 29.1 °F 22.1 °F 27.0 °F 92% 29.49 in 10.0 mi West 6.9 mph - N/A   Scattered Clouds
4:15 AM 29.8 °F 21.5 °F 26.8 °F 88% 29.49 in 10.0 mi West 9.2 mph - N/A   Mostly Cloudy
4:35 AM 29.8 °F 21.5 °F 26.6 °F 88% 29.51 in 10.0 mi WNW 9.2 mph - N/A   Overcast
4:55 AM 29.8 °F 21.5 °F 26.6 °F 88% 29.51 in 10.0 mi WNW 9.2 mph - N/A   Overcast
5:15 AM 30.0 °F 22.4 °F 26.2 °F 86% 29.51 in 10.0 mi NW 8.1 mph - N/A   Overcast
5:35 AM 29.8 °F 23.9 °F 26.2 °F 86% 29.52 in 10.0 mi NW 5.8 mph - N/A   Overcast
5:55 AM 30.0 °F 23.2 °F 25.7 °F 84% 29.53 in 10.0 mi WNW 6.9 mph - N/A   Overcast
6:15 AM 30.2 °F 21.9 °F 24.8 °F 80% 29.53 in 10.0 mi NW 9.2 mph - N/A   Overcast
6:35 AM 30.0 °F 20.5 °F 23.7 °F 77% 29.54 in 10.0 mi WNW 11.5 mph - N/A   Overcast
6:55 AM 30.0 °F 20.5 °F 23.0 °F 75% 29.54 in 10.0 mi NW 11.5 mph 18.4 mph N/A   Overcast
7:15 AM 29.8 °F 19.3 °F 22.1 °F 73% 29.55 in 10.0 mi NW 13.8 mph - N/A   Overcast
7:35 AM 29.3 °F 18.6 °F 21.2 °F 72% 29.56 in 10.0 mi WNW 13.8 mph - N/A   Overcast
7:55 AM 28.9 °F 19.2 °F 20.8 °F 72% 29.56 in 10.0 mi WNW 11.5 mph - N/A   Overcast
8:15 AM 28.4 °F 18.5 °F 19.9 °F 71% 29.57 in 10.0 mi WNW 11.5 mph 16.1 mph N/A   Overcast
8:35 AM 27.9 °F 18.4 °F 18.9 °F 69% 29.58 in 10.0 mi WNW 10.4 mph - N/A   Overcast
8:55 AM 27.5 °F 17.4 °F 18.9 °F 70% 29.59 in 10.0 mi WNW 11.5 mph - N/A   Overcast
9:15 AM 27.5 °F 18.0 °F 18.3 °F 68% 29.60 in 10.0 mi WNW 10.4 mph - N/A   Overcast
9:35 AM 27.5 °F 18.0 °F 17.8 °F 67% 29.60 in 10.0 mi WNW 10.4 mph - N/A   Overcast
9:55 AM 28.0 °F 20.0 °F 17.6 °F 65% 29.60 in 10.0 mi NW 8.1 mph - N/A   Overcast
10:15 AM 28.2 °F 18.9 °F 17.1 °F 63% 29.60 in 10.0 mi WNW 10.4 mph - N/A   Overcast
10:35 AM 29.3 °F 20.2 °F 17.6 °F 62% 29.61 in 10.0 mi West 10.4 mph - N/A   Mostly Cloudy
10:55 AM 28.6 °F 19.3 °F 17.4 °F 63% 29.60 in 10.0 mi WNW 10.4 mph - N/A   Overcast
11:15 AM 28.8 °F 17.9 °F 17.4 °F 63% 29.59 in 10.0 mi West 13.8 mph 18.4 mph N/A   Overcast
11:35 AM 28.4 °F 17.5 °F 18.5 °F 66% 29.59 in 10.0 mi West 13.8 mph - N/A   Overcast
11:55 AM 28.2 °F 17.7 °F 17.2 °F 63% 29.59 in 10.0 mi WNW 12.7 mph - N/A   Overcast
12:15 PM 28.0 °F 18.1 °F 17.6 °F 65% 29.59 in 10.0 mi WNW 11.5 mph 18.4 mph N/A   Overcast
12:35 PM 28.2 °F 16.8 °F 17.8 °F 65% 29.58 in 10.0 mi West 15.0 mph 20.7 mph N/A   Overcast
12:55 PM 28.0 °F 18.1 °F 18.3 °F 67% 29.58 in 10.0 mi West 11.5 mph - N/A   Overcast
1:15 PM 27.5 °F 16.3 °F 18.5 °F 69% 29.58 in 10.0 mi West 13.8 mph 18.4 mph N/A   Overcast
1:35 PM 27.5 °F 18.6 °F 19.4 °F 72% 29.58 in 10.0 mi West 9.2 mph 17.3 mph N/A   Overcast
1:55 PM 27.5 °F 19.3 °F 19.2 °F 71% 29.58 in 10.0 mi West 8.1 mph - N/A   Overcast
2:15 PM 27.5 °F 17.4 °F 19.0 °F 71% 29.58 in 10.0 mi West 11.5 mph - N/A   Overcast
2:35 PM 27.3 °F 18.4 °F 19.0 °F 71% 29.59 in 10.0 mi West 9.2 mph - N/A   Overcast
2:55 PM 27.5 °F 19.3 °F 18.7 °F 69% 29.59 in 10.0 mi West 8.1 mph - N/A   Overcast
3:15 PM 27.7 °F 19.6 °F 18.5 °F 68% 29.60 in 10.0 mi West 8.1 mph - N/A   Overcast
3:35 PM 27.9 °F 18.4 °F 16.9 °F 63% 29.60 in 10.0 mi WNW 10.4 mph - N/A   Overcast
3:55 PM 27.5 °F 19.3 °F 17.4 °F 66% 29.61 in 10.0 mi West 8.1 mph - N/A   Overcast
4:15 PM 27.1 °F 18.9 °F 18.0 °F 68% 29.61 in 10.0 mi West 8.1 mph - N/A   Overcast
4:35 PM 26.4 °F 18.9 °F 17.6 °F 69% 29.61 in 10.0 mi West 6.9 mph - N/A   Overcast
4:55 PM 26.2 °F 17.8 °F 17.6 °F 70% 29.61 in 10.0 mi West 8.1 mph - N/A   Overcast
5:15 PM 25.7 °F 18.0 °F 17.4 °F 71% 29.61 in 10.0 mi West 6.9 mph - N/A   Overcast
5:35 PM 25.7 °F 17.1 °F 17.2 °F 70% 29.62 in 10.0 mi West 8.1 mph - N/A   Overcast
5:55 PM 25.3 °F 15.3 °F 16.5 °F 69% 29.63 in 10.0 mi West 10.4 mph - N/A   Overcast
6:15 PM 24.8 °F 16.1 °F 15.8 °F 69% 29.63 in 10.0 mi West 8.1 mph - N/A   Overcast
6:35 PM 23.9 °F 15.8 °F 15.1 °F 69% 29.63 in 10.0 mi WSW 6.9 mph - N/A   Mostly Cloudy
6:55 PM 23.0 °F 13.9 °F 14.9 °F 71% 29.63 in 10.0 mi West 8.1 mph - N/A   Mostly Cloudy
7:15 PM 22.5 °F 15.1 °F 14.5 °F 72% 29.63 in 10.0 mi WSW 5.8 mph - N/A   Overcast
7:35 PM 21.7 °F 15.5 °F 13.8 °F 72% 29.63 in 10.0 mi WSW 4.6 mph - N/A   Scattered Clouds
7:55 PM 21.0 °F - 13.6 °F 73% 29.62 in 10.0 mi Calm Calm - N/A   Mostly Cloudy
8:15 PM 19.8 °F 14.7 °F 13.5 °F 77% 29.62 in 10.0 mi SW 3.5 mph - N/A   Overcast
8:35 PM 20.5 °F - 14.0 °F 76% 29.62 in 10.0 mi Calm Calm - N/A   Overcast
8:55 PM 19.8 °F - 14.0 °F 78% 29.62 in 10.0 mi Calm Calm - N/A   Overcast
9:15 PM 19.9 °F - 14.7 °F 80% 29.62 in 10.0 mi Calm Calm - N/A   Overcast
9:35 PM 20.7 °F - 14.5 °F 77% 29.61 in 10.0 mi Calm Calm - N/A   Overcast
9:55 PM 21.2 °F - 14.9 °F 77% 29.61 in 10.0 mi Calm Calm - N/A   Overcast
10:15 PM 21.2 °F 16.4 °F 14.9 °F 77% 29.61 in 10.0 mi SE 3.5 mph - N/A   Overcast
10:35 PM 21.4 °F 16.6 °F 14.7 °F 75% 29.60 in 10.0 mi SE 3.5 mph - N/A   Overcast
10:55 PM 21.6 °F 16.8 °F 14.9 °F 76% 29.59 in 10.0 mi SE 3.5 mph - N/A   Overcast
11:15 PM 21.4 °F - 14.9 °F 76% 29.59 in 10.0 mi Calm Calm - N/A   Overcast
11:35 PM 21.4 °F 16.6 °F 14.9 °F 76% 29.58 in 10.0 mi East 3.5 mph - N/A   Overcast
11:55 PM 21.6 °F - 14.9 °F 76% 29.58 in 10.0 mi Calm Calm - N/A   Overcast